Time,TemperatureF,DewpointF,PressureIn,WindDirection,WindDirectionDegrees,WindSpeedMPH,WindSpeedGustMPH,Humidity,HourlyPrecipIn,Conditions,Clouds,dailyrainin,SoftwareType,DateUTC
2013-07-31 00:02:00,64.0,64.0,30.09,North,4,0.0,0.0,100,0.00,,,0.00,,2013-07-31 04:02:00,
2013-07-31 00:22:00,64.0,64.0,30.09,North,4,0.0,0.0,100,0.00,,,0.00,,2013-07-31 04:22:00,
2013-07-31 00:32:00,64.0,64.0,30.09,North,4,0.0,0.0,100,0.00,,,0.00,,2013-07-31 04:32:00,
2013-07-31 00:42:00,64.0,64.0,30.09,North,4,0.0,0.0,100,0.00,,,0.00,,2013-07-31 04:42:00,
2013-07-31 00:52:00,64.0,64.0,30.09,North,4,0.0,0.0,100,0.00,,,0.00,,2013-07-31 04:52:00,
2013-07-31 01:02:00,64.0,64.0,30.09,North,4,0.0,0.0,100,0.00,,,0.00,,2013-07-31 05:02:00,
2013-07-31 01:22:00,63.0,63.0,30.08,North,4,0.0,0.0,100,0.00,,,0.00,,2013-07-31 05:22:00,
2013-07-31 01:32:00,63.0,63.0,30.09,North,4,0.0,0.0,100,0.00,,,0.00,,2013-07-31 05:32:00,
2013-07-31 01:42:00,63.0,63.0,30.09,North,4,0.0,0.0,100,0.00,,,0.00,,2013-07-31 05:42:00,
2013-07-31 01:52:00,63.0,63.0,30.09,North,4,0.0,0.0,100,0.00,,,0.00,,2013-07-31 05:52:00,
2013-07-31 02:02:00,62.0,62.0,30.08,North,4,0.0,0.0,100,0.00,,,0.00,,2013-07-31 06:02:00,
2013-07-31 02:32:00,61.0,61.0,30.09,North,4,0.0,0.0,100,0.00,,,0.00,,2013-07-31 06:32:00,
2013-07-31 02:43:00,61.0,61.0,30.09,North,3,0.0,0.0,100,0.00,,,0.00,,2013-07-31 06:43:00,
2013-07-31 02:53:00,61.0,61.0,30.08,North,4,0.0,0.0,100,0.00,,,0.00,,2013-07-31 06:53:00,
2013-07-31 03:02:00,60.0,60.0,30.08,North,3,0.0,0.0,100,0.00,,,0.00,,2013-07-31 07:02:00,
2013-07-31 03:12:00,60.0,60.0,30.08,North,3,0.0,0.0,100,0.00,,,0.00,,2013-07-31 07:12:00,
2013-07-31 03:22:00,60.0,60.0,30.09,North,3,0.0,0.0,100,0.00,,,0.00,,2013-07-31 07:22:00,
2013-07-31 03:32:00,60.0,60.0,30.09,North,3,0.0,0.0,100,0.00,,,0.00,,2013-07-31 07:32:00,
2013-07-31 03:43:00,59.0,59.0,30.09,North,3,0.0,0.0,100,0.00,,,0.00,,2013-07-31 07:43:00,
2013-07-31 03:52:00,59.0,59.0,30.09,North,3,0.0,0.0,100,0.00,,,0.00,,2013-07-31 07:52:00,
2013-07-31 04:02:00,59.0,59.0,30.09,North,3,0.0,0.0,100,0.00,,,0.00,,2013-07-31 08:02:00,
2013-07-31 04:12:00,58.0,58.0,30.09,North,3,0.0,0.0,100,0.00,,,0.00,,2013-07-31 08:12:00,
2013-07-31 04:32:00,58.0,58.0,30.09,North,4,0.0,0.0,100,0.00,,,0.00,,2013-07-31 08:32:00,
2013-07-31 04:42:00,58.0,58.0,30.09,North,4,0.0,0.0,100,0.00,,,0.00,,2013-07-31 08:42:00,
2013-07-31 04:53:00,58.0,58.0,30.10,North,4,0.0,0.0,100,0.00,,,0.00,,2013-07-31 08:53:00,
2013-07-31 05:02:00,57.0,57.0,30.10,North,3,0.0,0.0,100,0.00,,,0.00,,2013-07-31 09:02:00,
2013-07-31 05:52:00,56.0,56.0,30.11,North,3,0.0,0.0,100,0.00,,,0.00,,2013-07-31 09:52:00,
2013-07-31 06:02:00,56.0,56.0,30.11,North,3,0.0,0.0,100,0.00,,,0.00,,2013-07-31 10:02:00,
2013-07-31 06:52:00,56.0,56.0,30.13,North,3,0.0,0.0,100,0.00,,,0.00,,2013-07-31 10:52:00,
2013-07-31 07:43:00,58.0,58.0,30.14,North,1,0.0,0.0,100,0.00,,,0.00,,2013-07-31 11:43:00,
2013-07-31 07:52:00,58.0,58.0,30.14,North,3,0.0,0.0,100,0.00,,,0.00,,2013-07-31 11:52:00,
2013-07-31 08:03:00,60.0,60.0,30.14,North,4,0.0,0.0,100,0.00,,,0.00,,2013-07-31 12:03:00,
2013-07-31 08:43:00,67.0,65.0,30.14,North,4,0.0,0.0,93,0.00,,,0.00,,2013-07-31 12:43:00,
2013-07-31 09:33:00,71.0,66.0,30.14,North,7,0.0,0.0,83,0.00,,,0.00,,2013-07-31 13:33:00,
2013-07-31 09:43:00,70.0,65.0,30.14,North,7,0.0,2.0,85,0.00,,,0.00,,2013-07-31 13:43:00,
2013-07-31 10:34:00,74.0,65.0,30.11,North,6,0.0,0.0,73,0.00,,,0.00,,2013-07-31 14:34:00,
2013-07-31 10:43:00,75.0,65.0,30.11,NNE,31,0.0,1.0,70,0.00,,,0.00,,2013-07-31 14:43:00,
2013-07-31 10:53:00,75.0,63.0,30.11,North,11,0.0,1.0,67,0.00,,,0.00,,2013-07-31 14:53:00,
2013-07-31 11:02:00,75.0,63.0,30.11,East,85,0.0,1.0,66,0.00,,,0.00,,2013-07-31 15:02:00,
2013-07-31 11:12:00,75.0,63.0,30.11,North,1,0.0,1.0,67,0.00,,,0.00,,2013-07-31 15:12:00,
2013-07-31 11:33:00,76.0,62.0,30.11,North,357,1.0,3.0,63,0.00,,,0.00,,2013-07-31 15:33:00,
2013-07-31 11:43:00,76.0,62.0,30.11,NNW,328,0.0,8.0,63,0.00,,,0.00,,2013-07-31 15:43:00,
2013-07-31 11:53:00,77.0,63.0,30.10,NNE,23,0.0,6.0,63,0.00,,,0.00,,2013-07-31 15:53:00,
2013-07-31 12:02:00,77.0,64.0,30.10,NNE,13,0.0,1.0,65,0.00,,,0.00,,2013-07-31 16:02:00,
2013-07-31 12:33:00,78.0,62.0,30.09,North,359,0.0,1.0,59,0.00,,,0.00,,2013-07-31 16:33:00,
2013-07-31 12:44:00,79.0,62.0,30.09,NE,52,0.0,1.0,56,0.00,,,0.00,,2013-07-31 16:44:00,
2013-07-31 12:52:00,79.0,65.0,30.09,NE,52,0.0,0.0,62,0.00,,,0.00,,2013-07-31 16:52:00,
2013-07-31 13:03:00,78.0,63.0,30.08,NE,52,0.0,0.0,60,0.00,,,0.00,,2013-07-31 17:03:00,
2013-07-31 13:13:00,78.0,62.0,30.08,North,1,1.0,5.0,57,0.00,,,0.00,,2013-07-31 17:13:00,
2013-07-31 13:33:00,79.0,62.0,30.08,WNW,298,0.0,1.0,56,0.00,,,0.00,,2013-07-31 17:33:00,
2013-07-31 13:43:00,79.0,61.0,30.08,ESE,112,0.0,0.0,54,0.00,,,0.00,,2013-07-31 17:43:00,
2013-07-31 13:53:00,80.0,64.0,30.07,WSW,256,0.0,0.0,58,0.00,,,0.00,,2013-07-31 17:53:00,
2013-07-31 14:02:00,80.0,61.0,30.06,NNW,333,0.0,1.0,53,0.00,,,0.00,,2013-07-31 18:02:00,
2013-07-31 14:33:00,80.0,63.0,30.06,North,7,0.0,0.0,56,0.00,,,0.00,,2013-07-31 18:33:00,
2013-07-31 14:52:00,80.0,61.0,30.05,NE,52,0.0,1.0,53,0.00,,,0.00,,2013-07-31 18:52:00,
2013-07-31 15:03:00,80.0,62.0,30.05,NE,54,0.0,1.0,55,0.00,,,0.00,,2013-07-31 19:03:00,
2013-07-31 15:43:00,80.0,63.0,30.05,NE,40,0.0,1.0,57,0.00,,,0.00,,2013-07-31 19:43:00,
2013-07-31 15:53:00,81.0,64.0,30.04,NE,44,0.0,1.0,56,0.00,,,0.00,,2013-07-31 19:53:00,
2013-07-31 16:03:00,82.0,64.0,30.04,North,359,0.0,1.0,54,0.00,,,0.00,,2013-07-31 20:03:00,
2013-07-31 16:12:00,82.0,65.0,30.04,North,359,0.0,1.0,57,0.00,,,0.00,,2013-07-31 20:12:00,
2013-07-31 16:23:00,82.0,65.0,30.04,SSW,202,0.0,1.0,56,0.00,,,0.00,,2013-07-31 20:23:00,
2013-07-31 16:43:00,81.0,65.0,30.03,WSW,257,0.0,0.0,59,0.00,,,0.00,,2013-07-31 20:43:00,
2013-07-31 16:52:00,80.0,64.0,30.03,SE,144,0.0,0.0,58,0.00,,,0.00,,2013-07-31 20:52:00,
2013-07-31 17:02:00,80.0,66.0,30.03,SE,143,0.0,0.0,63,0.00,,,0.00,,2013-07-31 21:02:00,
2013-07-31 18:02:00,79.0,67.0,30.03,WSW,246,0.0,0.0,67,0.00,,,0.00,,2013-07-31 22:02:00,
2013-07-31 18:33:00,78.0,67.0,30.03,WSW,248,0.0,0.0,69,0.00,,,0.00,,2013-07-31 22:33:00,
2013-07-31 18:53:00,76.0,67.0,30.03,WSW,258,0.0,0.0,73,0.00,,,0.00,,2013-07-31 22:53:00,
2013-07-31 19:02:00,76.0,68.0,30.03,WSW,258,0.0,0.0,76,0.00,,,0.00,,2013-07-31 23:02:00,
2013-07-31 19:12:00,75.0,68.0,30.03,WSW,243,0.0,0.0,80,0.00,,,0.00,,2013-07-31 23:12:00,
2013-07-31 19:22:00,75.0,69.0,30.03,WSW,253,0.0,0.0,81,0.00,,,0.00,,2013-07-31 23:22:00,
2013-07-31 19:32:00,75.0,68.0,30.02,WSW,257,0.0,0.0,80,0.00,,,0.00,,2013-07-31 23:32:00,
2013-07-31 19:42:00,74.0,68.0,30.02,WSW,256,0.0,0.0,81,0.00,,,0.00,,2013-07-31 23:42:00,
2013-07-31 19:52:00,73.0,68.0,30.02,WSW,257,0.0,0.0,83,0.00,,,0.00,,2013-07-31 23:52:00,
2013-07-31 20:03:00,72.0,67.0,30.02,WSW,256,0.0,0.0,84,0.00,,,0.00,,2013-08-01 00:03:00,
2013-07-31 20:22:00,71.0,67.0,30.02,SSE,147,0.0,0.0,86,0.00,,,0.00,,2013-08-01 00:22:00,
2013-07-31 20:32:00,71.0,68.0,30.01,SW,217,0.0,0.0,89,0.00,,,0.00,,2013-08-01 00:32:00,
2013-07-31 20:43:00,70.0,66.0,30.01,SW,220,0.0,0.0,88,0.00,,,0.00,,2013-08-01 00:43:00,
2013-07-31 20:52:00,69.0,67.0,30.02,SW,227,0.0,0.0,93,0.00,,,0.00,,2013-08-01 00:52:00,
2013-07-31 21:03:00,68.0,66.0,30.02,WSW,258,0.0,0.0,93,0.00,,,0.00,,2013-08-01 01:03:00,
2013-07-31 21:12:00,68.0,66.0,30.02,WSW,258,0.0,0.0,94,0.00,,,0.00,,2013-08-01 01:12:00,
2013-07-31 21:22:00,67.0,66.0,30.02,WSW,257,0.0,0.0,96,0.00,,,0.00,,2013-08-01 01:22:00,
2013-07-31 21:33:00,67.0,66.0,30.02,WSW,257,0.0,0.0,96,0.00,,,0.00,,2013-08-01 01:33:00,
2013-07-31 21:43:00,67.0,66.0,30.02,WSW,257,0.0,0.0,97,0.00,,,0.00,,2013-08-01 01:43:00,
2013-07-31 21:53:00,66.0,66.0,30.03,WSW,248,0.0,0.0,99,0.00,,,0.00,,2013-08-01 01:53:00,
2013-07-31 22:02:00,66.0,66.0,30.03,SE,140,0.0,0.0,100,0.00,,,0.00,,2013-08-01 02:02:00,
2013-07-31 22:52:00,64.0,64.0,30.03,SE,136,0.0,0.0,100,0.00,,,0.00,,2013-08-01 02:52:00,
2013-07-31 23:32:00,63.0,63.0,30.03,SE,140,0.0,0.0,100,0.00,,,0.00,,2013-08-01 03:32:00,
2013-07-31 23:53:00,62.0,62.0,30.03,SE,144,0.0,0.0,100,0.00,,,0.00,,2013-08-01 03:53:00,